| time (UTC) | temp F | wind direction | speed MPH | gust MPH | rain 1hr in | rain 24hr in | rain mn in | humidity % | barometer mb |
| 20260506195435 | 72 | 351 | 2.0 | 10.0 | 0.00 | 0.02 | 0.02 | 74 | 1012.4 |
| 20260506194936 | 73 | 32 | 2.0 | 10.0 | 0.00 | 0.02 | 0.02 | 73 | 1012.4 |
| 20260506194439 | 76 | 331 | 2.0 | 5.0 | 0.00 | 0.02 | 0.02 | 73 | 1012.2 |
| 20260506194435 | 75 | 319 | 4.0 | 10.0 | 0.00 | 0.02 | 0.02 | 71 | 1012.4 |
| 20260506193435 | 77 | 336 | 1.0 | 4.0 | 0.00 | 0.02 | 0.02 | 73 | 1012.1 |
| 20260506192934 | 77 | 344 | 1.0 | 4.0 | 0.00 | 0.02 | 0.02 | 73 | 1012.1 |
| 20260506192434 | 77 | 327 | 1.0 | 6.0 | 0.00 | 0.02 | 0.02 | 72 | 1012.1 |
| 20260506191934 | 77 | 79 | 2.0 | 6.0 | 0.00 | 0.02 | 0.02 | 73 | 1012.0 |
| 20260506191435 | 77 | 331 | 1.0 | 4.0 | 0.00 | 0.02 | 0.02 | 72 | 1012.1 |
| 20260506190935 | 78 | 348 | 2.0 | 4.0 | 0.00 | 0.02 | 0.02 | 71 | 1012.3 |
| 20260506190439 | 78 | 351 | 2.0 | 5.0 | 0.00 | 0.02 | 0.02 | 71 | 1012.2 |
| 20260506190435 | 78 | 337 | 1.0 | 5.0 | 0.00 | 0.02 | 0.02 | 72 | 1012.4 |
| 20260506185433 | 78 | 55 | 2.0 | 5.0 | 0.00 | 0.02 | 0.02 | 70 | 1012.4 |
| 20260506184939 | 78 | 340 | 0.0 | 3.0 | 0.00 | 0.02 | 0.02 | 73 | 1012.2 |
| 20260506184935 | 79 | 4 | 2.0 | 5.0 | 0.00 | 0.02 | 0.02 | 70 | 1012.4 |
| 20260506183933 | 77 | 344 | 1.0 | 4.0 | 0.00 | 0.02 | 0.02 | 72 | 1012.1 |
| 20260506183438 | 77 | 49 | 0.0 | 3.0 | 0.01 | 0.02 | 0.02 | 72 | 1012.3 |
| 20260506183434 | 77 | 341 | 1.0 | 4.0 | 0.01 | 0.02 | 0.02 | 72 | 1012.2 |
| 20260506182433 | 77 | 338 | 1.0 | 2.0 | 0.01 | 0.02 | 0.02 | 75 | 1012.4 |
| 20260506181934 | 76 | 329 | 0.0 | 3.0 | 0.01 | 0.02 | 0.02 | 74 | 1012.4 |
| 20260506181434 | 76 | 350 | 2.0 | 3.0 | 0.01 | 0.02 | 0.02 | 74 | 1012.4 |
| 20260506180933 | 75 | 344 | 1.0 | 2.0 | 0.01 | 0.02 | 0.02 | 77 | 1012.3 |
| 20260506180434 | 75 | 31 | 0.0 | 4.0 | 0.01 | 0.02 | 0.02 | 77 | 1012.2 |
| 20260506175935 | 74 | 30 | 2.0 | 4.0 | 0.01 | 0.02 | 0.02 | 79 | 1012.3 |
| 20260506175432 | 73 | 30 | 0.0 | 6.0 | 0.01 | 0.02 | 0.02 | 81 | 1012.2 |
| 20260506174932 | 72 | 49 | 1.0 | 6.0 | 0.01 | 0.02 | 0.02 | 79 | 1012.2 |
| 20260506174433 | 72 | 79 | 1.0 | 4.0 | 0.01 | 0.02 | 0.02 | 81 | 1012.2 |
| 20260506173933 | 71 | 327 | 0.0 | 2.0 | 0.01 | 0.02 | 0.02 | 82 | 1012.3 |
| 20260506173433 | 71 | 52 | 0.0 | 3.0 | 0.01 | 0.01 | 0.01 | 83 | 1012.5 |
| 20260506172933 | 70 | 323 | 2.0 | 4.0 | 0.01 | 0.01 | 0.01 | 84 | 1012.4 |
| 20260506172437 | 69 | 341 | 1.0 | 9.0 | 0.01 | 0.01 | 0.01 | 85 | 1012.5 |
| 20260506172433 | 69 | 320 | 1.0 | 5.0 | 0.01 | 0.01 | 0.01 | 85 | 1012.5 |
| 20260506172053 | 68 | 24 | 3.0 | 9.0 | 0.01 | 0.01 | 0.01 | 85 | 1012.6 |
| 20260506170932 | 68 | 109 | 1.0 | 4.0 | 0.01 | 0.01 | 0.01 | 82 | 1012.5 |
| 20260506170431 | 67 | 73 | 1.0 | 6.0 | 0.01 | 0.01 | 0.01 | 82 | 1012.4 |
| 20260506165931 | 66 | 32 | 2.0 | 6.0 | 0.01 | 0.01 | 0.01 | 82 | 1012.4 |
| 20260506165431 | 66 | 323 | 2.0 | 4.0 | 0.01 | 0.01 | 0.01 | 81 | 1012.7 |
| 20260506164932 | 65 | 323 | 2.0 | 4.0 | 0.01 | 0.01 | 0.01 | 81 | 1012.8 |
| 20260506164431 | 65 | 82 | 2.0 | 4.0 | 0.01 | 0.01 | 0.01 | 83 | 1012.8 |
| 20260506163933 | 64 | 200 | 0.0 | 3.0 | 0.01 | 0.01 | 0.01 | 85 | 1012.9 |
| 20260506163430 | 64 | 310 | 1.0 | 5.0 | 0.00 | 0.00 | 0.00 | 85 | 1013.1 |
| 20260506162931 | 64 | 54 | 2.0 | 9.0 | 0.00 | 0.00 | 0.00 | 86 | 1013.4 |
| 20260506162430 | 65 | 355 | 4.0 | 9.0 | 0.00 | 0.00 | 0.00 | 85 | 1013.6 |
| 20260506161931 | 66 | 303 | 2.0 | 10.0 | 0.00 | 0.00 | 0.00 | 85 | 1013.7 |
| 20260506161430 | 66 | 10 | 4.0 | 10.0 | 0.00 | 0.00 | 0.00 | 85 | 1013.8 |
| 20260506160930 | 67 | 110 | 2.0 | 9.0 | 0.00 | 0.00 | 0.00 | 85 | 1013.7 |
| 20260506160430 | 67 | 319 | 3.0 | 10.0 | 0.00 | 0.00 | 0.00 | 85 | 1013.6 |
| 20260506155931 | 68 | 314 | 4.0 | 10.0 | 0.00 | 0.00 | 0.00 | 85 | 1013.6 |
| 20260506155431 | 69 | 316 | 3.0 | 9.0 | 0.00 | 0.00 | 0.00 | 84 | 1013.4 |
| 20260506154929 | 69 | 330 | 3.0 | 13.0 | 0.00 | 0.00 | 0.00 | 83 | 1013.3 |
| 20260506154430 | 71 | 324 | 3.0 | 13.0 | 0.00 | 0.00 | 0.00 | 82 | 1013.1 |
| 20260506153930 | 72 | 327 | 2.0 | 7.0 | 0.00 | 0.00 | 0.00 | 81 | 1013.1 |
| 20260506153431 | 75 | 329 | 3.0 | 7.0 | 0.00 | 0.00 | 0.00 | 80 | 1013.0 |
| 20260506152930 | 78 | 338 | 0.0 | 1.0 | 0.00 | 0.00 | 0.00 | 85 | 1012.7 |
| 20260506152430 | 77 | 120 | 0.0 | 1.0 | 0.00 | 0.00 | 0.00 | 84 | 1012.2 |
| 20260506151930 | 77 | 120 | 0.0 | 1.0 | 0.00 | 0.00 | 0.00 | 85 | 1011.9 |
| 20260506151430 | 77 | 120 | 0.0 | 1.0 | 0.00 | 0.00 | 0.00 | 85 | 1012.0 |
| 20260506150929 | 77 | 118 | 0.0 | 1.0 | 0.00 | 0.00 | 0.00 | 85 | 1012.0 |
| 20260506150429 | 77 | 120 | 0.0 | 1.0 | 0.00 | 0.00 | 0.00 | 85 | 1011.9 |
| 20260506145930 | 77 | 118 | 0.0 | 1.0 | 0.00 | 0.00 | 0.00 | 84 | 1011.9 |
| 20260506145430 | 77 | 120 | 0.0 | 3.0 | 0.00 | 0.00 | 0.00 | 85 | 1011.6 |
| 20260506144929 | 77 | 131 | 0.0 | 3.0 | 0.00 | 0.00 | 0.00 | 85 | 1011.5 |
| 20260506144430 | 77 | 134 | 1.0 | 3.0 | 0.00 | 0.00 | 0.00 | 84 | 1011.4 |
| 20260506143929 | 77 | 134 | 1.0 | 2.0 | 0.00 | 0.00 | 0.00 | 84 | 1011.3 |
| 20260506143429 | 77 | 134 | 1.0 | 4.0 | 0.00 | 0.00 | 0.00 | 84 | 1011.0 |
| 20260506142934 | 77 | 138 | 2.0 | 4.0 | 0.00 | 0.00 | 0.00 | 84 | 1010.8 |
| 20260506142927 | 77 | 134 | 2.0 | 4.0 | 0.00 | 0.00 | 0.00 | 84 | 1011.1 |
| 20260506141929 | 77 | 127 | 2.0 | 3.0 | 0.00 | 0.00 | 0.00 | 84 | 1010.6 |
| 20260506141429 | 77 | 144 | 2.0 | 3.0 | 0.00 | 0.00 | 0.00 | 83 | 1010.7 |
| 20260506140929 | 77 | 141 | 0.0 | 0.0 | 0.00 | 0.00 | 0.00 | 83 | 1011.0 |
| 20260506140428 | 76 | 141 | 0.0 | 0.0 | 0.00 | 0.00 | 0.00 | 83 | 1011.5 |
| 20260506135928 | 76 | 141 | 0.0 | 0.0 | 0.00 | 0.00 | 0.00 | 81 | 1011.3 |
| 20260506135428 | 76 | 141 | 0.0 | 2.0 | 0.00 | 0.00 | 0.00 | 81 | 1010.9 |
| 20260506134930 | 76 | 141 | 0.0 | 2.0 | 0.00 | 0.00 | 0.00 | 82 | 1010.6 |
| 20260506134427 | 76 | 141 | 0.0 | 2.0 | 0.00 | 0.00 | 0.00 | 81 | 1010.4 |
| 20260506133927 | 76 | 141 | 0.0 | 2.0 | 0.00 | 0.00 | 0.00 | 81 | 1010.5 |
| 20260506133427 | 76 | 141 | 0.0 | 2.0 | 0.00 | 0.00 | 0.00 | 81 | 1010.4 |
| 20260506132929 | 76 | 141 | 0.0 | 4.0 | 0.00 | 0.00 | 0.00 | 81 | 1010.4 |
| 20260506132427 | 76 | 141 | 2.0 | 4.0 | 0.00 | 0.00 | 0.00 | 81 | 1010.4 |
| 20260506131926 | 76 | 114 | 1.0 | 3.0 | 0.00 | 0.00 | 0.00 | 81 | 1010.3 |
| 20260506131427 | 76 | 124 | 1.0 | 3.0 | 0.00 | 0.00 | 0.00 | 81 | 1010.3 |
| 20260506130928 | 76 | 134 | 2.0 | 3.0 | 0.00 | 0.00 | 0.00 | 81 | 1010.3 |
| 20260506130432 | 76 | 138 | 2.0 | 3.0 | 0.00 | 0.00 | 0.00 | 81 | 1010.2 |
| 20260506130428 | 76 | 142 | 1.0 | 3.0 | 0.00 | 0.00 | 0.00 | 81 | 1010.3 |
| 20260506125427 | 76 | 140 | 1.0 | 3.0 | 0.00 | 0.00 | 0.00 | 81 | 1010.1 |
| 20260506124926 | 75 | 140 | 0.0 | 2.0 | 0.00 | 0.00 | 0.00 | 80 | 1010.0 |
| 20260506124426 | 75 | 140 | 0.0 | 2.0 | 0.00 | 0.00 | 0.00 | 81 | 1010.1 |
| 20260506123927 | 75 | 140 | 1.0 | 2.0 | 0.00 | 0.00 | 0.00 | 81 | 1010.1 |
| 20260506123428 | 75 | 140 | 0.0 | 3.0 | 0.00 | 0.00 | 0.00 | 81 | 1010.1 |
| 20260506122928 | 75 | 140 | 2.0 | 3.0 | 0.00 | 0.00 | 0.00 | 81 | 1010.0 |
| 20260506122425 | 75 | 138 | 2.0 | 3.0 | 0.00 | 0.00 | 0.00 | 81 | 1010.0 |
| 20260506121926 | 75 | 140 | 1.0 | 3.0 | 0.00 | 0.00 | 0.00 | 82 | 1010.1 |
| 20260506121426 | 75 | 130 | 0.0 | 0.0 | 0.00 | 0.00 | 0.00 | 82 | 1010.1 |
| 20260506120925 | 75 | 130 | 0.0 | 0.0 | 0.00 | 0.00 | 0.00 | 82 | 1010.1 |
| 20260506120425 | 75 | 130 | 0.0 | 0.0 | 0.00 | 0.00 | 0.00 | 82 | 1010.0 |
| 20260506115924 | 75 | 130 | 0.0 | 3.0 | 0.00 | 0.00 | 0.00 | 82 | 1009.9 |
| 20260506115425 | 75 | 130 | 0.0 | 3.0 | 0.00 | 0.00 | 0.00 | 82 | 1009.8 |
| 20260506114924 | 75 | 130 | 1.0 | 3.0 | 0.00 | 0.00 | 0.00 | 81 | 1009.9 |
| 20260506114425 | 75 | 130 | 1.0 | 2.0 | 0.00 | 0.00 | 0.00 | 81 | 1009.8 |
| 20260506113931 | 75 | 130 | 0.0 | 1.0 | 0.00 | 0.00 | 0.00 | 82 | 1009.9 |
| 20260506113926 | 75 | 130 | 0.0 | 1.0 | 0.00 | 0.00 | 0.00 | 81 | 1009.9 |
| 20260506113545 | 76 | 130 | 0.0 | 1.0 | 0.00 | 0.00 | 0.00 | 82 | 1009.9 |
| 20260506112425 | 76 | 130 | 0.0 | 1.0 | 0.00 | 0.00 | 0.00 | 82 | 1009.9 |
| 20260506111925 | 76 | 130 | 0.0 | 3.0 | 0.00 | 0.00 | 0.00 | 82 | 1009.9 |
| 20260506111425 | 76 | 130 | 1.0 | 3.0 | 0.00 | 0.00 | 0.00 | 82 | 1009.9 |
| 20260506110924 | 76 | 125 | 0.0 | 2.0 | 0.00 | 0.00 | 0.00 | 82 | 1009.9 |
| 20260506110429 | 76 | 125 | 0.0 | 0.0 | 0.00 | 0.00 | 0.00 | 83 | 1009.9 |
| 20260506110423 | 76 | 125 | 1.0 | 2.0 | 0.00 | 0.00 | 0.00 | 82 | 1009.8 |
| 20260506105423 | 76 | 125 | 0.0 | 1.0 | 0.00 | 0.00 | 0.00 | 83 | 1009.9 |
| 20260506104929 | 76 | 125 | 0.0 | 0.0 | 0.00 | 0.00 | 0.00 | 83 | 1009.8 |
| 20260506104924 | 76 | 125 | 0.0 | 1.0 | 0.00 | 0.00 | 0.00 | 83 | 1009.8 |
| 20260506103923 | 76 | 125 | 0.0 | 3.0 | 0.00 | 0.00 | 0.00 | 83 | 1009.7 |
| 20260506103424 | 76 | 125 | 1.0 | 3.0 | 0.00 | 0.00 | 0.00 | 83 | 1009.6 |
| 20260506102924 | 76 | 131 | 0.0 | 0.0 | 0.00 | 0.00 | 0.00 | 83 | 1009.5 |
| 20260506102424 | 76 | 131 | 0.0 | 3.0 | 0.00 | 0.00 | 0.00 | 83 | 1009.6 |
| 20260506101922 | 76 | 131 | 0.0 | 3.0 | 0.00 | 0.00 | 0.00 | 83 | 1009.6 |
| 20260506101426 | 76 | 137 | 2.0 | 3.0 | 0.00 | 0.00 | 0.00 | 83 | 1009.5 |
| 20260506101422 | 76 | 140 | 1.0 | 3.0 | 0.00 | 0.00 | 0.00 | 83 | 1009.4 |
| 20260506100424 | 76 | 134 | 0.0 | 7.0 | 0.00 | 0.00 | 0.00 | 83 | 1009.4 |
| 20260506095923 | 76 | 134 | 0.0 | 7.0 | 0.00 | 0.00 | 0.00 | 83 | 1009.3 |
| 20260506095424 | 76 | 142 | 0.0 | 4.0 | 0.00 | 0.00 | 0.00 | 82 | 1009.2 |
| 20260506094922 | 76 | 125 | 2.0 | 5.0 | 0.00 | 0.00 | 0.00 | 82 | 1009.2 |
| 20260506094422 | 76 | 154 | 1.0 | 5.0 | 0.00 | 0.00 | 0.00 | 82 | 1009.0 |
| 20260506093924 | 76 | 148 | 2.0 | 4.0 | 0.00 | 0.00 | 0.00 | 82 | 1009.0 |
| 20260506093423 | 76 | 145 | 1.0 | 3.0 | 0.00 | 0.00 | 0.00 | 82 | 1009.0 |
| 20260506092922 | 76 | 140 | 1.0 | 5.0 | 0.00 | 0.00 | 0.00 | 82 | 1008.9 |
| 20260506092422 | 76 | 147 | 3.0 | 5.0 | 0.00 | 0.00 | 0.00 | 82 | 1008.8 |
| 20260506091923 | 76 | 138 | 2.0 | 5.0 | 0.00 | 0.00 | 0.00 | 82 | 1008.8 |
| 20260506091422 | 76 | 142 | 2.0 | 4.0 | 0.00 | 0.00 | 0.00 | 82 | 1008.8 |
| 20260506090921 | 76 | 140 | 2.0 | 7.0 | 0.00 | 0.00 | 0.00 | 82 | 1008.7 |
| 20260506090421 | 76 | 120 | 4.0 | 7.0 | 0.00 | 0.00 | 0.00 | 82 | 1008.5 |
| 20260506085923 | 76 | 152 | 3.0 | 4.0 | 0.00 | 0.00 | 0.00 | 82 | 1008.5 |
| 20260506085425 | 76 | 158 | 2.0 | 5.0 | 0.00 | 0.00 | 0.00 | 83 | 1008.6 |
| 20260506085421 | 76 | 159 | 2.0 | 4.0 | 0.00 | 0.00 | 0.00 | 83 | 1008.7 |
| 20260506084422 | 76 | 141 | 3.0 | 5.0 | 0.00 | 0.00 | 0.00 | 83 | 1008.7 |
| 20260506083921 | 76 | 137 | 3.0 | 6.0 | 0.00 | 0.00 | 0.00 | 83 | 1008.7 |
| 20260506083420 | 76 | 140 | 3.0 | 9.0 | 0.00 | 0.00 | 0.00 | 83 | 1008.7 |
| 20260506082922 | 76 | 118 | 3.0 | 9.0 | 0.00 | 0.00 | 0.00 | 83 | 1008.7 |
| 20260506082421 | 76 | 164 | 4.0 | 9.0 | 0.00 | 0.00 | 0.00 | 83 | 1008.7 |
| 20260506081921 | 76 | 142 | 2.0 | 9.0 | 0.00 | 0.00 | 0.00 | 83 | 1008.7 |
| 20260506081420 | 76 | 154 | 4.0 | 5.0 | 0.00 | 0.00 | 0.00 | 83 | 1008.6 |
| 20260506080922 | 76 | 137 | 2.0 | 6.0 | 0.00 | 0.00 | 0.00 | 83 | 1008.7 |
| 20260506080421 | 76 | 140 | 3.0 | 6.0 | 0.00 | 0.00 | 0.00 | 83 | 1008.7 |
| 20260506073420 | 76 | 141 | 3.0 | 7.0 | 0.00 | 0.00 | 0.00 | 83 | 1009.1 |
| 20260506072925 | 76 | 137 | 3.0 | 6.0 | 0.00 | 0.00 | 0.00 | 84 | 1009.1 |
| 20260506072921 | 76 | 159 | 2.0 | 6.0 | 0.00 | 0.00 | 0.00 | 83 | 1009.0 |
| 20260506071919 | 76 | 148 | 3.0 | 5.0 | 0.00 | 0.00 | 0.00 | 84 | 1009.3 |
| 20260506071421 | 76 | 127 | 2.0 | 6.0 | 0.00 | 0.00 | 0.00 | 84 | 1009.2 |
| 20260506070920 | 76 | 147 | 4.0 | 7.0 | 0.00 | 0.00 | 0.00 | 84 | 1009.1 |
| 20260506070423 | 76 | 159 | 3.0 | 9.0 | 0.00 | 0.00 | 0.00 | 84 | 1009.3 |
| 20260506070419 | 76 | 148 | 4.0 | 7.0 | 0.00 | 0.00 | 0.00 | 84 | 1009.2 |
| 20260506061919 | 76 | 137 | 4.0 | 10.0 | 0.00 | 0.00 | 0.00 | 83 | 1009.3 |
| 20260506061418 | 76 | 147 | 2.0 | 10.0 | 0.00 | 0.00 | 0.00 | 83 | 1009.2 |
| 20260506060920 | 76 | 137 | 2.0 | 5.0 | 0.00 | 0.00 | 0.00 | 83 | 1009.2 |
| 20260506060419 | 76 | 145 | 3.0 | 6.0 | 0.00 | 0.00 | 0.00 | 83 | 1009.3 |
| 20260506051416 | 77 | 161 | 2.0 | 9.0 | 0.00 | 0.00 | 0.00 | 84 | 1009.2 |
| 20260506050923 | 77 | 140 | 3.0 | 9.0 | 0.00 | 0.00 | 0.00 | 84 | 1009.4 |
| 20260506050919 | 77 | 152 | 3.0 | 6.0 | 0.00 | 0.00 | 0.00 | 84 | 1009.3 |
| 20260506044917 | 77 | 151 | 3.0 | 6.0 | 0.00 | 0.00 | 0.00 | 84 | 1009.3 |
| 20260506044418 | 77 | 142 | 4.0 | 9.0 | 0.00 | 0.00 | 0.00 | 84 | 1009.3 |
| 20260506043917 | 77 | 137 | 3.0 | 9.0 | 0.00 | 0.00 | 0.00 | 84 | 1009.3 |
| 20260506043416 | 77 | 137 | 3.0 | 7.0 | 0.00 | 0.00 | 0.00 | 84 | 1009.3 |
| 20260506042915 | 77 | 124 | 3.0 | 7.0 | 0.00 | 0.00 | 0.00 | 84 | 1009.3 |
| 20260506042416 | 77 | 138 | 3.0 | 5.0 | 0.00 | 0.00 | 0.00 | 84 | 1009.3 |
| 20260506041917 | 77 | 137 | 3.0 | 6.0 | 0.00 | 0.00 | 0.00 | 84 | 1009.1 |
| 20260506041417 | 77 | 133 | 4.0 | 9.0 | 0.00 | 0.00 | 0.00 | 84 | 1009.1 |
| 20260506040922 | 77 | 154 | 3.0 | 9.0 | 0.00 | 0.00 | 0.00 | 84 | 1009.0 |
| 20260506040916 | 77 | 140 | 4.0 | 9.0 | 0.00 | 0.00 | 0.00 | 84 | 1009.0 |
| 20260506035915 | 77 | 131 | 4.0 | 7.0 | 0.00 | 0.00 | 0.00 | 84 | 1008.9 |
| 20260506035417 | 78 | 127 | 2.0 | 6.0 | 0.00 | 0.00 | 0.00 | 84 | 1008.9 |
| 20260506034917 | 78 | 137 | 3.0 | 6.0 | 0.00 | 0.00 | 0.00 | 84 | 1008.8 |
| 20260506034415 | 78 | 83 | 3.0 | 7.0 | 0.00 | 0.00 | 0.00 | 84 | 1008.8 |
| 20260506033916 | 78 | 151 | 4.0 | 7.0 | 0.00 | 0.00 | 0.00 | 84 | 1008.8 |
| 20260506033416 | 78 | 147 | 5.0 | 7.0 | 0.00 | 0.00 | 0.00 | 84 | 1008.8 |
| 20260506032916 | 78 | 164 | 4.0 | 7.0 | 0.00 | 0.00 | 0.00 | 84 | 1008.6 |
| 20260506032415 | 78 | 140 | 3.0 | 6.0 | 0.00 | 0.00 | 0.00 | 84 | 1008.6 |
| 20260506031916 | 78 | 155 | 3.0 | 6.0 | 0.00 | 0.00 | 0.00 | 83 | 1008.6 |
| 20260506031414 | 78 | 152 | 3.0 | 6.0 | 0.00 | 0.00 | 0.00 | 83 | 1008.5 |
| 20260506030914 | 78 | 127 | 2.0 | 7.0 | 0.00 | 0.00 | 0.00 | 83 | 1008.4 |
| 20260506030415 | 79 | 148 | 2.0 | 7.0 | 0.00 | 0.00 | 0.00 | 83 | 1008.3 |
| 20260506025914 | 79 | 159 | 4.0 | 9.0 | 0.00 | 0.00 | 0.00 | 83 | 1008.2 |
| 20260506025415 | 79 | 118 | 5.0 | 9.0 | 0.00 | 0.00 | 0.00 | 83 | 1008.2 |
| 20260506024914 | 79 | 135 | 4.0 | 7.0 | 0.00 | 0.00 | 0.00 | 82 | 1008.1 |
| 20260506024415 | 79 | 123 | 4.0 | 6.0 | 0.00 | 0.00 | 0.00 | 82 | 1008.0 |
| 20260506023914 | 79 | 142 | 3.0 | 7.0 | 0.00 | 0.00 | 0.00 | 82 | 1007.9 |
| 20260506023414 | 80 | 142 | 3.0 | 9.0 | 0.00 | 0.00 | 0.00 | 81 | 1007.8 |
| 20260506022915 | 80 | 134 | 4.0 | 9.0 | 0.00 | 0.00 | 0.00 | 80 | 1007.8 |
| 20260506022415 | 80 | 127 | 3.0 | 7.0 | 0.00 | 0.00 | 0.00 | 80 | 1007.6 |
| 20260506021913 | 80 | 141 | 3.0 | 7.0 | 0.00 | 0.00 | 0.00 | 80 | 1007.5 |
| 20260506021415 | 80 | 134 | 2.0 | 5.0 | 0.00 | 0.00 | 0.00 | 79 | 1007.3 |
| 20260506020918 | 80 | 111 | 3.0 | 4.0 | 0.00 | 0.00 | 0.00 | 79 | 1007.2 |
| 20260506020912 | 80 | 148 | 2.0 | 5.0 | 0.00 | 0.00 | 0.00 | 79 | 1007.2 |
| 20260506015913 | 81 | 117 | 2.0 | 5.0 | 0.00 | 0.00 | 0.00 | 79 | 1007.2 |
| 20260506015413 | 81 | 138 | 3.0 | 5.0 | 0.00 | 0.00 | 0.00 | 78 | 1007.1 |
| 20260506014914 | 81 | 147 | 2.0 | 4.0 | 0.00 | 0.00 | 0.00 | 78 | 1007.1 |
| 20260506014413 | 81 | 130 | 2.0 | 5.0 | 0.00 | 0.00 | 0.00 | 78 | 1007.0 |
| 20260506013912 | 81 | 120 | 2.0 | 5.0 | 0.00 | 0.00 | 0.00 | 77 | 1007.1 |
| 20260506013417 | 82 | 110 | 3.0 | 5.0 | 0.00 | 0.00 | 0.00 | 77 | 1007.0 |
| 20260506013412 | 81 | 117 | 2.0 | 5.0 | 0.00 | 0.00 | 0.00 | 77 | 1007.1 |
| 20260506012415 | 82 | 118 | 2.0 | 4.0 | 0.00 | 0.00 | 0.00 | 77 | 1007.0 |
| 20260506011912 | 82 | 134 | 2.0 | 4.0 | 0.00 | 0.00 | 0.00 | 76 | 1007.0 |
| 20260506011413 | 82 | 121 | 2.0 | 4.0 | 0.00 | 0.00 | 0.00 | 76 | 1007.0 |
| 20260506010916 | 82 | 130 | 1.0 | 2.0 | 0.00 | 0.00 | 0.00 | 76 | 1007.1 |
| 20260506010911 | 82 | 135 | 2.0 | 4.0 | 0.00 | 0.00 | 0.00 | 76 | 1007.1 |
| 20260506005912 | 82 | 138 | 1.0 | 3.0 | 0.00 | 0.00 | 0.00 | 75 | 1007.1 |
| 20260506005418 | 83 | 147 | 2.0 | 4.0 | 0.00 | 0.00 | 0.00 | 75 | 1007.1 |
| 20260506005412 | 83 | 138 | 1.0 | 4.0 | 0.00 | 0.00 | 0.00 | 75 | 1007.0 |
| 20260506004411 | 83 | 125 | 2.0 | 4.0 | 0.00 | 0.00 | 0.00 | 75 | 1007.0 |
| 20260506003912 | 83 | 125 | 1.0 | 4.0 | 0.00 | 0.00 | 0.00 | 75 | 1007.0 |
| 20260506003411 | 83 | 134 | 2.0 | 4.0 | 0.00 | 0.00 | 0.00 | 74 | 1007.0 |
| 20260506002912 | 83 | 140 | 1.0 | 4.0 | 0.00 | 0.00 | 0.00 | 74 | 1006.9 |
| 20260506002413 | 83 | 140 | 1.0 | 4.0 | 0.00 | 0.00 | 0.00 | 74 | 1006.9 |
| 20260506001912 | 83 | 147 | 2.0 | 3.0 | 0.00 | 0.00 | 0.00 | 74 | 1006.9 |
| 20260506001411 | 83 | 133 | 1.0 | 3.0 | 0.00 | 0.00 | 0.00 | 73 | 1006.9 |
| 20260506000912 | 83 | 140 | 2.0 | 5.0 | 0.00 | 0.00 | 0.00 | 73 | 1006.8 |
| 20260506000410 | 83 | 151 | 2.0 | 5.0 | 0.00 | 0.00 | 0.00 | 73 | 1006.7 |
| 20260505235917 | 83 | 130 | 2.0 | 5.0 | 0.00 | 0.00 | 0.00 | 73 | 1006.7 |
| 20260505235913 | 83 | 152 | 2.0 | 5.0 | 0.00 | 0.00 | 0.00 | 73 | 1006.7 |
| 20260505234910 | 83 | 116 | 3.0 | 5.0 | 0.00 | 0.00 | 0.00 | 72 | 1006.7 |
| 20260505234411 | 84 | 147 | 2.0 | 6.0 | 0.00 | 0.00 | 0.00 | 72 | 1006.7 |
| 20260505233910 | 84 | 127 | 3.0 | 6.0 | 0.00 | 0.00 | 0.00 | 71 | 1006.6 |
| 20260505233411 | 84 | 141 | 3.0 | 7.0 | 0.00 | 0.00 | 0.00 | 72 | 1006.5 |
| 20260505232909 | 84 | 141 | 2.0 | 7.0 | 0.00 | 0.00 | 0.00 | 71 | 1006.5 |
| 20260505232411 | 84 | 117 | 4.0 | 6.0 | 0.00 | 0.00 | 0.00 | 71 | 1006.6 |
| 20260505231909 | 84 | 128 | 2.0 | 5.0 | 0.00 | 0.00 | 0.00 | 71 | 1006.7 |
| 20260505231410 | 84 | 140 | 2.0 | 4.0 | 0.00 | 0.00 | 0.00 | 72 | 1006.7 |
| 20260505230909 | 84 | 147 | 1.0 | 5.0 | 0.00 | 0.00 | 0.00 | 72 | 1006.6 |
| 20260505230409 | 84 | 135 | 2.0 | 5.0 | 0.00 | 0.00 | 0.00 | 71 | 1006.5 |
| 20260505225910 | 84 | 154 | 3.0 | 6.0 | 0.00 | 0.00 | 0.00 | 71 | 1006.5 |
| 20260505225409 | 84 | 145 | 3.0 | 6.0 | 0.00 | 0.00 | 0.00 | 71 | 1006.3 |
| 20260505224913 | 84 | 147 | 3.0 | 6.0 | 0.00 | 0.00 | 0.00 | 70 | 1006.3 |
| 20260505224909 | 84 | 154 | 1.0 | 6.0 | 0.00 | 0.00 | 0.00 | 70 | 1006.5 |
| 20260505223915 | 84 | 142 | 4.0 | 7.0 | 0.00 | 0.00 | 0.00 | 70 | 1006.2 |
| 20260505223910 | 84 | 141 | 3.0 | 7.0 | 0.00 | 0.00 | 0.00 | 70 | 1006.2 |
| 20260505222910 | 85 | 130 | 3.0 | 7.0 | 0.00 | 0.00 | 0.00 | 70 | 1006.3 |
| 20260505222409 | 85 | 141 | 1.0 | 6.0 | 0.00 | 0.00 | 0.00 | 70 | 1006.2 |
| 20260505221908 | 85 | 165 | 3.0 | 7.0 | 0.00 | 0.00 | 0.00 | 69 | 1006.3 |
| 20260505221408 | 85 | 148 | 4.0 | 7.0 | 0.00 | 0.00 | 0.00 | 70 | 1006.3 |
| 20260505220908 | 85 | 158 | 3.0 | 7.0 | 0.00 | 0.00 | 0.00 | 69 | 1006.3 |
| 20260505220407 | 85 | 130 | 4.0 | 7.0 | 0.00 | 0.00 | 0.00 | 69 | 1006.3 |
| 20260505215909 | 85 | 142 | 3.0 | 6.0 | 0.00 | 0.00 | 0.00 | 69 | 1006.3 |
| 20260505215413 | 85 | 138 | 3.0 | 6.0 | 0.00 | 0.00 | 0.00 | 67 | 1006.9 |
| 20260505215409 | 85 | 124 | 1.0 | 6.0 | 0.00 | 0.00 | 0.00 | 68 | 1006.6 |
| 20260505214409 | 85 | 149 | 1.0 | 11.0 | 0.00 | 0.00 | 0.00 | 67 | 1006.9 |
| 20260505213913 | 86 | 164 | 3.0 | 9.0 | 0.00 | 0.00 | 0.00 | 67 | 1006.9 |
| 20260505213907 | 85 | 117 | 4.0 | 11.0 | 0.00 | 0.00 | 0.00 | 66 | 1006.8 |
| 20260505212907 | 86 | 157 | 3.0 | 10.0 | 0.00 | 0.00 | 0.00 | 67 | 1007.1 |
| 20260505212409 | 85 | 142 | 4.0 | 10.0 | 0.00 | 0.00 | 0.00 | 68 | 1007.0 |
| 20260505211915 | 85 | 147 | 3.0 | 6.0 | 0.00 | 0.00 | 0.00 | 68 | 1007.1 |
| 20260505211908 | 85 | 140 | 2.0 | 10.0 | 0.00 | 0.00 | 0.00 | 69 | 1007.0 |
| 20260505211409 | 85 | 149 | 5.0 | 10.0 | 0.00 | 0.00 | 0.00 | 68 | 1007.1 |
| 20260505210407 | 85 | 147 | 3.0 | 6.0 | 0.00 | 0.00 | 0.00 | 69 | 1007.1 |
| 20260505205907 | 84 | 169 | 3.0 | 7.0 | 0.00 | 0.00 | 0.00 | 71 | 1007.2 |
| 20260505205407 | 84 | 159 | 3.0 | 7.0 | 0.00 | 0.00 | 0.00 | 70 | 1007.2 |
| 20260505204906 | 83 | 154 | 5.0 | 9.0 | 0.00 | 0.00 | 0.00 | 71 | 1007.3 |
| 20260505204414 | 83 | 168 | 5.0 | 10.0 | 0.00 | 0.00 | 0.00 | 72 | 1007.5 |
| 20260505204408 | 83 | 123 | 4.0 | 9.0 | 0.00 | 0.00 | 0.00 | 71 | 1007.4 |
| 20260505203407 | 83 | 147 | 5.0 | 10.0 | 0.00 | 0.00 | 0.00 | 72 | 1007.7 |
| 20260505202912 | 83 | 158 | 1.0 | 7.0 | 0.00 | 0.00 | 0.00 | 73 | 1007.9 |
| 20260505202907 | 83 | 157 | 3.0 | 9.0 | 0.00 | 0.00 | 0.00 | 72 | 1007.8 |
| 20260505201912 | 83 | 144 | 3.0 | 6.0 | 0.00 | 0.00 | 0.00 | 73 | 1008.1 |
| 20260505201906 | 83 | 149 | 4.0 | 7.0 | 0.00 | 0.00 | 0.00 | 72 | 1008.0 |
| 20260505200905 | 83 | 152 | 2.0 | 7.0 | 0.00 | 0.00 | 0.00 | 73 | 1008.1 |
| 20260505200405 | 82 | 154 | 1.0 | 7.0 | 0.00 | 0.00 | 0.00 | 74 | 1008.2 |
| 20260505195906 | 82 | 217 | 4.0 | 6.0 | 0.00 | 0.00 | 0.00 | 73 | 1008.2 |